Location: Tierra del Sol
(32.6128°N, 116.3319°W)
Time: 02:23:00
(UTC-07:00)

N. Korean satellite - Pass Details

Date: 15 October 2017
Orbit: 459 x 517 km, 97.2° (Epoch: 17 October)

Event Time Altitude Azimuth Distance (km) Brightness Sun altitude
Rises 19:05:40 0° 176° (S) 2,552 10.2 -12.1°
Reaches altitude 10° 19:07:46 10° 180° (S) 1,665 9.3 -12.5°
Maximum altitude 19:11:18 57° 260° (W) 570 7.2 -13.3°
Drops below altitude 10° 19:14:46 10° 340° (NNW) 1,645 9.5 -14.0°
Sets 19:16:51 0° 344° (NNW) 2,518 10.4 -14.4°
